Weather Roundup
Issued by NWS Corpus Christi, TX

Home | Current Version | Previous Version | Text Only | Print | Product List | Glossary On
Versions: 1 2 3 4 5 6 7 8 9 10 11 12 13 14 15 16 17 18 19 20 21 22 23 24 25 26 27 28 29 30 31 32 33 34 35 36 37 38 39 40 41 42 43 44 45 46 47 48 49 50
000
ASUS44 KCRP 161110
HRRCRP

SOUTH TEXAS REGIONAL WEATHER ROUNDUP
NATIONAL WEATHER SERVICE CORPUS CHRISTI TX
500 AM CST SAT DEC 16 2017


TXZ229>244-161200-
...CORPUS CHRISTI AREA OBSERVATIONS...

CITY           SKY/WX    TMP DP  RH WIND       PRES   REMARKS
CORPUS CHRISTI CLOUDY    51  42  71 N8        30.18F
NAS CORPUS CHR CLOUDY    54  43  66 NE12      30.18F
ROCKPORT       CLOUDY    50  42  74 N6        30.20F
KINGSVILLE ARP DRIZZLE   51  48  91 CALM      30.18F
KINGSVILLE NAS CLOUDY    50  47  89 N5        30.17F
ALICE          CLOUDY    50  43  77 N6        30.17F
$$

...VICTORIA AREA OBSERVATIONS...

CITY           SKY/WX    TMP DP  RH WIND       PRES   REMARKS
PORT LAVACA    CLOUDY    48  41  78 N5        30.21F
VICTORIA       CLOUDY    48  43  82 CALM      30.21F
BEEVILLE       CLOUDY    48  41  77 N6        30.19F
PLEASANTON     CLOUDY    47  43  84 CALM      30.18F
SAN ANTONIO    CLOUDY    46  39  76 CALM      30.17F
$$

...LAREDO AREA OBSERVATIONS...

CITY           SKY/WX    TMP DP  RH WIND       PRES   REMARKS
LAREDO         LGT RAIN  47  43  86 MISG      30.19F
COTULLA        CLOUDY    48  44  86 CALM      30.17F
DEL RIO        CLOUDY    45  40  82 E6        30.12F
MCALLEN        CLOUDY    50  45  83 W6        30.18F
HEBBRONVILLE   DRIZZLE   46  43  87 CALM      30.17F
$$

...OTHER TEXAS OBSERVATIONS...

CITY           SKY/WX    TMP DP  RH WIND       PRES   REMARKS
BROWNSVILLE    CLOUDY    52  45  77 NW13      30.15F
HOUSTON        CLOUDY    46  42  86 CALM      30.21F
COL. STATION   CLOUDY    39  34  82 CALM      30.20F
AUSTIN         PTCLDY    35  33  92 CALM      30.17F
WACO           MOCLDY    40  30  67 S7        30.17F
FORT WORTH     CLOUDY    41  27  57 S8        30.11F
WICHITA FALLS  CLOUDY    33  22  63 S12       30.06F WCI  24
LUBBOCK        CLEAR     31  23  72 SW12      29.97F WCI  22
EL PASO        PTCLDY    28  21  75 CALM      30.04F
$$

...MARINE OBSERVATIONS...

STATION/POSITION TIME  SKY/WX   TEMP    WIND        PRES    VSBY  WAVE   SWELL
                                AIR SEA DIR/SP/G                  HT/PER HT/PER
                 (UTC)          (F)     (DEG/KT/KT) (MB)    (MI)  (FT/S) (FT/S)
PORT ARANSAS     NOT AVBL
BUOY 90 E PORT A 0950            60 71   40/ 16/ 17 1021.7          3/ 7   2/ 7
BUOY 200 E PT IS 1050            70 76   50/ 14/ 16 1018.8F         6/ 8   5/ 8
BUOY 15 E GALVES 0950            54 61   30/ 12/ 14 1023.2          2/ 5
$$




USA.gov is the U.S. government's official web portal to all federal, state and local government web resources and services.